Regional Weather Roundup
Issued by NWS Sioux Falls, SD

Home | Current Version | Previous Version | Text Only | Print | Product List | Glossary On
Versions: 1 2 3 4 5 6 7 8 9 10 11 12 13 14 15 16 17 18 19 20 21 22 23 24 25 26 27 28 29 30 31 32 33 34 35 36 37 38 39 40 41 42 43 44 45 46 47 48 49 50
000
ASUS43 KFSD 270910
RWRFSD

WEATHER ROUNDUP FOR SE SOUTH DAKOTA/SW MINNESOTA/NW IOWA
NATIONAL WEATHER SERVICE SIOUX FALLS SD
300 AM CST THU NOV 27 2014

NOTE: "FAIR" INDICATES FEW OR NO CLOUDS BELOW 12,000 FEET WITH NO
SIGNIFICANT WEATHER AND OR OBSTRUCTIONS TO VISIBILITY.


SDZ038>040-050-052>070-271000-
SOUTHEAST SOUTH DAKOTA

CITY           SKY/WX    TMP DP  RH WIND       PRES   REMARKS
CHAMBERLAIN    CLOUDY    11   4  73 E7        30.45F WCI   1
HURON          MOCLDY    -5 -10  79 NW3       30.53R
MADISON        FAIR      -4  -9  77 N5        30.47R WCI -15
MITCHELL       CLOUDY     6  -2  69 N3        30.54R
SIOUX FALLS    PTCLDY    -2  -8  76 N7        30.49F WCI -15
WINNER         CLOUDY    17   8  67 E10       30.40S WCI   5
YANKTON        CLOUDY    10   3  72 N8        30.52S WCI  -1
$$

MNZ071-072-080-081-089-090-097-098-271000-
SOUTHWEST MINNESOTA

CITY           SKY/WX    TMP DP  RH WIND       PRES   REMARKS
FAIRMONT       PTCLDY    -2  -9  71 NW16      30.44R WCI -23
JACKSON        PTCLDY    -2  -8  78 NW13      30.45R WCI -21
LUVERNE        PTCLDY     1  -8  66 NW6       30.50R WCI -10
MARSHALL       PTCLDY    -6 -11  77 NW10      30.50R WCI -23
MONTEVIDEO     PTCLDY    -6  -9  84 N6        30.54R WCI -18
PIPESTONE      PTCLDY    -2  -9  71 N7        30.44S WCI -16
REDWOOD FALLS  PTCLDY    -4  -9  79 NW10      30.51S WCI -21
TRACY          PTCLDY    -4  -8  81 NW10      30.49S WCI -21
WINDOM         PTCLDY    -4  -9  77 NW13      30.46S WCI -23
WORTHINGTON    PTCLDY    -6  -9  84 N8        30.45S WCI -21
$$

IAZ001>003-012>014-020>022-031-032-NEZ013-014-SDZ071-271000-
NORTHWEST IOWA

CITY           SKY/WX    TMP DP  RH WIND       PRES   REMARKS
CHEROKEE       FAIR       3  -4  70 N7        30.48R WCI  -9
DENISON        PTCLDY    10   3  72 N8        30.46R WCI  -1
ESTHERVILLE    PTCLDY    -4  -9  79 NW15      30.45R WCI -25
LE MARS        CLOUDY     7  -2  66 NW6       30.52R WCI  -3
ORANGE CITY    PTCLDY     1  -8  66 CALM      30.48R
SHELDON        PTCLDY     0  -9  65 NW8       30.48R WCI -15
SIOUX CITY     CLEAR     12   1  61 N9        30.52R WCI   0
SPENCER        PTCLDY   N/A N/A N/A N16       30.47R
STORM LAKE     PTCLDY     1  -8  66 N13       30.45R WCI -16
$$

ABBREVIATIONS USED IN REMARKS
   TC - TEMPERATURE IN CELSIUS
  WCI - WIND CHILL INDEX
   HX - HEAT INDEX
  VSB - VISIBILITY



USA.gov is the U.S. government's official web portal to all federal, state and local government web resources and services.